Welcome to the New NWS' Forecast!
Most changes are behind the scenes, but click here for differences you might notice.
Latest weather observations around

Camp Springs / Andrews Air Force Base (KADW)

Using English Units (Switch to International System of Units)
Date/ Time (EDT) Wind (mph) Vis. (mi) Weather Sky Cond. Temp (°F) Rel. Humidity Wind Chill (°F) Heat Index (°F) Pressure Precip. (in)
Air Dwpt 6 hour Altimeter (inHg) Sea level (inHg) 1 hr 3 hr 6 hr
Max Min
Oct 23 13:56 SSE 14 10 Partly Cloudy FEW037 SCT190 75 61     62%   75 30.06        
Oct 23 12:56 SE 13 10 Mostly Clear FEW019 FEW027 74 63     70%   74 30.11        
Oct 23 10:31 SE 7 10 Cloudy OVC006 66 66     100%     30.19        
Oct 23 10:21 SE 8 10 Cloudy OVC004 66 66     100%     30.2        
Oct 23 10:06 SSE 7 10 Cloudy OVC003 64 64     100%     30.21        
Oct 23 09:56 SSE 7 10 Cloudy OVC002 65 65     100%     30.21        
Oct 23 09:02 SSE 6 3 Fog/Mist OVC002 64 64     100%     30.22        
Oct 23 08:56 SSE 3 2 Fog/Mist OVC002 64 64     100%     30.22        
Oct 23 08:52 SE 5 1.5 Fog/Mist OVC002 64 64     100%     30.22        
Oct 23 08:49 SE 5 1.25 Fog/Mist OVC002 64 64     100%     30.23        
Oct 23 08:48 SE 6 1.12 Fog/Mist OVC002 64 64     100%     30.23        
Oct 23 08:47 SE 6 1.12 Fog/Mist OVC002 64 64     100%     30.22        
Oct 23 08:44 SE 5 1 Fog/Mist OVC002 64 64     100%     30.23        
Oct 23 08:41 ESE 3 0.88 Fog/Mist OVC002 64 64     100%     30.23        
Oct 23 08:39 SE 5 0.75 Fog/Mist VV002 64 64     100%     30.23 30.25      
Oct 23 08:36 SE 3 0.63 Fog/Mist VV002 63 63     100%     30.23 30.25      
Oct 23 08:31 SE 6 0.5 Fog VV002 63 63     100%     30.23 30.25      
Oct 23 08:25 ESE 3 0.37 Fog VV002 63 63     100%     30.23 30.25      
Oct 23 08:12 Calm 0.25 Fog VV002 63 63     100%     30.23 30.25      
Oct 23 08:01 Calm 0.25 Fog VV002 63 63     100%     30.23 30.25      
Oct 23 07:56 SE 3 0.25 Fog VV001 63 63     100%     30.23 30.25      
Notice The following observation data may not be complete
Oct 23 07:25   0.25 Fog VV002          %              
Oct 23 07:24 SSE 5 0.37 Fog VV002 63 63     100%     30.23 30.25      
Oct 23 07:23 SE 3 0.37 Fog VV002 63 63     100%     30.23 30.25      
Oct 23 07:22 SE 3 0.37 Fog VV001 63 63     100%     30.23 30.25      
Oct 23 07:21 SSE 3 0.5 Fog VV001 63 63     100%     30.23 30.25      
Oct 23 07:20 SSE 3 0.5 Fog VV001 63 63     100%     30.23 30.25      
Oct 23 07:19 SE 3 0.63 Fog/Mist VV001 63 63     100%     30.23 30.25      
Oct 23 07:18 SE 3 0.63 Fog/Mist VV001 63 63     100%     30.23 30.25      
Oct 23 07:17 SSE 5 0.63 Fog/Mist VV001 63 63     100%     30.23 30.25      
Oct 23 07:16 SSE 5 0.63 Fog/Mist VV001 63 63     100%     30.23 30.25      
Oct 23 07:12 SE 6 0.75 Fog/Mist VV002 63 63     100%     30.23 30.25      
Oct 23 06:41 SSE 7 0.75 Fog/Mist VV002 63 63     100%     30.24 30.26      
Oct 23 06:40 SSE 6 0.63 Fog/Mist VV002 63 63     100%     30.24 30.26      
Oct 23 06:35 SSE 6 0.63 Fog/Mist VV001 63 63     100%     30.23 30.25      
Oct 23 06:20 SSE 6 0.5 Fog VV001 63 63     100%     30.24 30.26      
Oct 23 06:06 SE 6 0.37 Fog VV001 63 63     100%     30.24 30.26      
Oct 23 05:56 SE 3 0.25 Fog VV001 62 62     100%     30.24 30.26      
Oct 23 05:39 ESE 3 0.37 Fog VV001 61 61     100%     30.25 30.27      
Oct 23 05:34 Calm 0.37 Fog VV002 61 61     100%     30.25 30.27      
Oct 23 05:33 Calm 0.37 Fog VV002 61 61     100%     30.25 30.27      
Oct 23 05:17 Calm 0.5 Fog VV002 61 61     100%     30.25 30.27      
Oct 23 05:03 ESE 3 0.37 Fog VV002 59 59     100%     30.25 30.27      
Oct 23 04:59 ESE 5 0.5 Fog VV002 59 59     100%     30.25 30.27      
Oct 23 04:56 Calm 0.63 Fog/Mist VV002 60 59     99%     30.25 30.27      
Oct 23 04:53 ESE 3 0.75 Fog/Mist VV002 59 59     100%     30.25 30.27      
Oct 23 04:50 ESE 3 0.88 Fog/Mist VV002 59 59     100%     30.25 30.27      
Oct 23 04:44 Calm 1 Fog/Mist OVC001 59 59     100%     30.25 30.27      
Oct 23 04:40 Calm 0.88 Fog/Mist VV002 59 59     100%     30.25 30.27      
Oct 23 04:37 Calm 0.75 Fog/Mist VV001 59 59     100%     30.25 30.27      
Oct 23 04:33 Calm 0.63 Fog/Mist VV001 59 59     100%     30.25 30.27      
Oct 23 04:24 Calm 0.5 Fog VV001 59 59     100%     30.25 30.27      
Oct 23 03:56 Calm 0.37 Fog VV001 59 58     99%     30.26 30.28      
Oct 23 03:48 Calm 0.37 Fog VV001 59 57     94%     30.26 30.28      
Oct 23 03:37 Calm 0.25 Fog VV001 57 57     100%     30.26 30.28      
Oct 23 03:28 Calm 0.37 Fog VV001 59 57     94%     30.27 30.29      
Oct 23 03:26 Calm 0.5 Fog VV001 59 57     94%     30.27 30.29      
Oct 23 03:21 Calm 0.5 Fog OVC002 59 59     100%     30.26 30.28      
Oct 23 03:15 Calm 0.63 Fog/Mist OVC002 59 59     100%     30.26 30.28      
Oct 23 03:08 Calm 0.75 Fog/Mist OVC002 59 59     100%     30.26 30.28      
Oct 23 03:04 Calm 0.63 Fog/Mist VV003 59 59     100%     30.26 30.28      
Oct 23 03:00 Calm 0.5 Fog BKN003 57 57     100%     30.27 30.29      
Oct 23 02:57 Calm 0.63 Fog/Mist BKN003 57 57     100%     30.27 30.29      
Oct 23 02:56 Calm 0.75 Fog/Mist BKN003 58 57     97%     30.26 30.28      
Oct 23 02:52 Calm 1 Fog/Mist BKN003 59 57     94%     30.27 30.29      
Oct 23 02:49 Calm 1.12 Fog/Mist BKN003 59 57     94%     30.27 30.29      
Oct 23 02:48 Calm 1.25 Fog/Mist BKN003 59 59     100%     30.27 30.29      
Oct 23 02:44 Calm 1.37 Fog/Mist SCT003 59 59     100%     30.27 30.29      
Oct 23 02:41 Calm 1.75 Fog/Mist SCT003 59 57     94%     30.27 30.29      
Oct 23 02:40 Calm 2.25 Fog/Mist FEW003 59 57     94%     30.27 30.29      
Oct 23 02:37 Calm 5 Fog/Mist FEW003 59 57     94%     30.27 30.29      
Oct 23 01:56 Calm 10 Clear CLR 58 57     97%     30.28 30.3      
Oct 23 00:56 Calm 10 Clear CLR 58 57     95%     30.29 30.31      
Oct 22 23:56 SE 5 10 Clear CLR 59 57     92%     30.29 30.31      
Oct 22 22:56 SSE 6 10 Clear CLR 59 56     89%     30.32 30.34      
Oct 22 21:56 SSE 6 10 Clear CLR 58 52     80%     30.33 30.35      
Oct 22 20:56 SSE 5 10 Clear CLR 55 48     76%     30.32 30.34      
Oct 22 19:56 S 3 10 Clear CLR 62 46     56%     30.32 30.34      
Oct 22 18:56 SE 5 10 Clear CLR 62 46     55%     30.3 30.32      
Oct 22 16:56 ESE 9 10 Clear CLR 72 54     53%   72 30.3        
Oct 22 15:05 SE 9 10 Clear CLR 74 52     46%   73 30.34        
Oct 22 14:56 SE 8 10 Clear CLR 75 51     44%   74 30.32        
Oct 22 13:56 SE 9 10 Clear CLR 74 52     46%   73 30.34 30.36      
Oct 22 12:56 SSE 6 10 Clear CLR 73 52     48%   72 30.36 30.38      
Oct 22 11:56 ESE 3 10 Clear CLR 71 52     51%   70 30.37 30.39      
Oct 22 10:56 SSE 6 10 Clear CLR 69 51     52%     30.39 30.41      
Oct 22 09:56 S 5 10 Clear CLR 64 56     74%     30.4 30.42      
Oct 22 08:56 Calm 10 Clear CLR 56 52     88%     30.39 30.41      
Oct 22 07:56 Calm 10 Clear CLR 46 44     93%     30.38 30.4      
Oct 22 06:56 Calm 10 Clear CLR 47 46     94%     30.37 30.39      
Oct 22 05:56 Calm 10 Clear CLR 46 44     92%     30.36 30.38      
Oct 22 04:56 Calm 10 Clear CLR 49 45     87%     30.34 30.36      
Oct 22 03:56 Calm 10 Clear CLR 51 45     82%     30.34 30.36      
Oct 22 02:56 W 3 10 Clear CLR 53 45     76%     30.34 30.36      
Oct 22 01:56 Calm 10 Clear CLR 51 45     80%     30.33 30.35      
Oct 22 00:56 Calm 10 Clear CLR 52 45     77%     30.34 30.36      
Oct 21 23:58 Calm 10 Clear CLR 58 44     60%     30.35 30.37      
Oct 21 22:56 Calm 10 Clear CLR 58 44     60%     30.35 30.37      
Oct 21 21:56 Calm 10 Clear CLR 55 48     79%     30.35 30.37      
Oct 21 20:56 Calm 10 Clear CLR 58 48     71%     30.35 30.37      
Oct 21 19:56 Calm 10 Clear CLR 58 50     75%     30.35 30.37      
Oct 21 18:56 Calm 10 Clear CLR 64 47     54%     30.34 30.36      
Oct 21 17:56 E 6 10 Clear CLR 67 45     45%     30.32 30.34      
Oct 21 16:56 ESE 6 10 Clear CLR 72 45     38%   71 30.31        
Oct 21 15:56 Calm 10 Clear CLR 74 42     31%   73 30.31        
Oct 21 14:56 Calm 10 Clear CLR 75 41     29%   74 30.31        
Oct 21 13:56 Calm 10 Clear CLR 74 42     31%   73 30.32       0
Oct 21 12:56 Calm 10 Clear CLR 74 42     32%   72 30.34   0    
Oct 21 11:56 Calm 10 Clear CLR 71 44     38%   69 30.36        
Oct 21 10:56 E 3 10 Clear CLR 69 45     42%     30.36        
Oct 21 09:56 N 5 10 Clear CLR 65 47     53%     30.36        
Oct 21 08:56 Calm 10 Clear CLR 57 50     79%     30.35        
Oct 21 07:56 Calm 10 Clear CLR 47 44     90%     30.32        
Oct 21 06:56 Calm 10 Clear CLR 45 43     94%     30.3        
Oct 21 05:56 Calm 10 Clear CLR 48 44     87%     30.29        
Oct 21 04:56 Calm 10 Clear CLR 47 44     90%     30.27 30.29      
Oct 21 03:56 Calm 10 Clear CLR 47 45     92%     30.26 30.28      
Oct 21 02:56 Calm 10 Clear CLR 49 46     89%     30.27 30.29      
Oct 21 01:56 Calm 10 Clear CLR 49 46     90%     30.27 30.29      
Oct 21 00:56 Calm 10 Clear CLR 50 47     89%     30.26 30.28      
Oct 20 23:56 S 3 10 Clear   51 47     86%     30.25 30.27      
Oct 20 22:56 Calm 10 Clear CLR 53 47     80%     30.24 30.26      
Oct 20 21:56 Calm 10 Clear CLR 52 47     83%     30.23 30.25      
Oct 20 20:56 Calm 10 Clear CLR 56 48     73%     30.21 30.23      
Oct 20 19:56 Calm 10 Clear CLR 60 48     63%     30.21 30.23      
Oct 20 18:56 WNW 5 10 Clear CLR 67 45     45%     30.2 30.22      
Oct 20 17:56 WNW 7 10 Clear CLR 71 46     41%   69 30.18 30.2      
Oct 20 16:56 NNW 7 10 Clear CLR 73 44     36%   72 30.18 30.2      
Oct 20 15:56 NW 7 10 Clear CLR 73 44     35%   72 30.18 30.2      
Oct 20 14:56 NNW 8 10 Clear CLR 74 42     32%   73 30.19 30.21      
Jun 11 17:58 SW 11 10 Clear   90 62     38%   91 30.07 30.08      
Jun 11 15:58 SSW 11 10 Clear CLR 92 58     33%   91 30.09 30.1      
Jun 09 00:58 Calm 10 Clear CLR 53 50     88%     29.82 29.84      
Notice The following observation data may not be complete
Jun 08 01:58   10 Clear CLR          %              
Jun 07 23:58 N 5 10 Clear CLR 53 50     88%     30.04 30.06      
Notice The following observation data may not be complete
Jun 07 18:58   10 Cloudy OVC038          %              
Jun 07 16:18 ENE 8 10 Mostly Cloudy BKN029 BKN200 64 54     68%     29.99 30.01      
Jun 07 15:48 ENE 11 10 Mostly Cloudy SCT023 BKN031 BKN160 64 54     68%     29.99 30.01      
Notice The following observation data may not be complete
Jun 07 13:23   10 Mostly Cloudy FEW022 BKN030          %              
Jun 07 11:13 E 9 10 Cloudy OVC014 61 55     82%     29.97 29.99      
Jun 07 09:18 E 9 10 Cloudy BKN014 OVC024 61 55     82%     29.95 29.97      
Jun 06 04:19 W 6 1.25 Fog/Mist SCT001 64 64     100%     29.66 29.67      
Jun 06 04:17 W 6 0.75 Fog/Mist VV001 64 64     100%     29.66 29.67      
Jun 06 01:10 Calm 1.25 Fog/Mist FEW041 63 63     100%     29.68 29.7      
Jun 06 00:57 Calm 0.75 Fog/Mist FEW065 63 63     100%     29.69 29.7